This is the latest recevied weather packets stored in our database for station/object KC5AV. If no packets are shown the sender has not sent any weather packets the latest 10 day(s).
| Time | Temp. | Humidity | Pressure | Rain* | Wind** | Luminosity | Snow |
|---|---|---|---|---|---|---|---|
| 1777568883 | 17.78° C | 82% | 1015.6 hPa | 0 mm | - | 221 W/m² | - |
| 1777568580 | 17.78° C | 82% | 1015.7 hPa | 0 mm | - | 203 W/m² | - |
| 1777568278 | 17.78° C | 82% | 1015.2 hPa | 0 mm | - | 195 W/m² | - |
| 1777567974 | 17.78° C | 83% | 1015.2 hPa | 0 mm | - | 327 W/m² | - |
| 1777567670 | 17.78° C | 84% | 1015.4 hPa | 0 mm | - | 296 W/m² | - |
| 1777567368 | 17.22° C | 84% | 1015.1 hPa | 0 mm | - | 326 W/m² | - |
| 1777567066 | 17.22° C | 85% | 1015.3 hPa | 0 mm | - | 265 W/m² | - |
| 1777566763 | 17.22° C | 85% | 1015.4 hPa | 0 mm | - | 204 W/m² | - |
| 1777566461 | 17.22° C | 85% | 1015.4 hPa | 0 mm | - | 151 W/m² | - |
| 1777566158 | 17.22° C | 86% | 1015.6 hPa | 0 mm | - | 135 W/m² | - |
| 1777565853 | 17.22° C | 86% | 1015.3 hPa | 0 mm | - | 179 W/m² | - |
| 1777565550 | 17.22° C | 86% | 1015.7 hPa | 0 mm | - | 168 W/m² | - |
| 1777565247 | 16.67° C | 87% | 1015.7 hPa | 0 mm | - | 130 W/m² | - |
| 1777564943 | 16.67° C | 87% | 1015.9 hPa | 0 mm | - | 113 W/m² | - |
| 1777564638 | 16.67° C | 87% | 1015.8 hPa | 0 mm | - | 75 W/m² | - |
| 1777564334 | 16.67° C | 87% | 1015.9 hPa | 0 mm | - | 107 W/m² | - |
| 1777564030 | 16.67° C | 86% | 1015.8 hPa | 0 mm | - | 108 W/m² | - |
| 1777563726 | 16.67° C | 87% | 1015.4 hPa | 0 mm | - | 105 W/m² | - |
| 1777563422 | 16.67° C | 87% | 1015.2 hPa | 0 mm | - | 167 W/m² | - |
| 1777563117 | 16.67° C | 87% | 1015.3 hPa | 0 mm | - | 128 W/m² | - |
| 1777562813 | 16.67° C | 86% | 1015.6 hPa | 0 mm | - | 110 W/m² | - |
| 1777562511 | 17.22° C | 88% | 1015.1 hPa | 0 mm | - | 121 W/m² | - |
| 1777562208 | 17.22° C | 88% | 1015 hPa | 0 mm | - | 131 W/m² | - |
| 1777561906 | 17.22° C | 87% | 1015.2 hPa | 0 mm | - | 135 W/m² | - |
| 1777561603 | 17.22° C | 87% | 1015.1 hPa | 0 mm | - | 153 W/m² | - |
* Rain latest hour (hover to see other rain measurements)
** Current wind speed in m/s (hover to see current wind gust speed)